Wolke Sonne

Wetter Ammerndorf

Gehe zu: Roßtal

Tageswerte vom Montag, 07.03.2022

Optionen

Tag:
Erweitert:

Alle Werte vom Montag, 07.03.2022

Einen Moment bitte, die Daten werden aufbereitet...

UhrzeitTemperaturBoden 10cmBoden 20cmFeuchteLuftdruckNiederschlagEvapotranspirationWindWindböenWindrichtungSolarstrahlungUV-IndexSonne?Uhrzeit
Diagramm IconDiagramm IconDiagramm IconDiagramm IconDiagramm IconDiagramm IconDiagramm IconDiagramm IconDiagramm IconDiagramm IconDiagramm IconDiagramm IconDiagramm Icon
00:00-1,3 °C 2,2 °C 2,8 °C 67 % 1026,5 hPa 0,0 mm - 4,7 km/h 7,9 km/h NO 0,0 W/qm 0,0 nein 00:00
00:05-1,3 °C 2,2 °C 2,8 °C 67 % 1026,5 hPa 0,0 mm 0,0 mm 4,7 km/h 7,9 km/h NO 0,0 W/qm 0,0 nein 00:05
00:10-1,4 °C 2,2 °C 2,8 °C 67 % 1026,5 hPa 0,0 mm 0,0 mm 3,2 km/h 7,9 km/h NO 0,0 W/qm 0,0 nein 00:10
00:15-1,4 °C 2,2 °C 2,8 °C 67 % 1026,5 hPa 0,0 mm - 3,2 km/h 7,9 km/h ONO 0,0 W/qm 0,0 nein 00:15
00:20-1,4 °C 2,2 °C 2,8 °C 67 % 1026,5 hPa 0,0 mm - 3,2 km/h 7,9 km/h ONO 0,0 W/qm 0,0 nein 00:20
00:25-1,4 °C 2,2 °C 2,8 °C 66 % 1026,5 hPa 0,0 mm - 4,7 km/h 7,9 km/h NO 0,0 W/qm 0,0 nein 00:25
00:30-1,4 °C 2,2 °C 2,8 °C 66 % 1026,4 hPa 0,0 mm - 4,7 km/h 7,9 km/h NO 0,0 W/qm 0,0 nein 00:30
00:35-1,4 °C 2,2 °C 2,8 °C 66 % 1026,5 hPa 0,0 mm - 3,2 km/h 7,9 km/h NO 0,0 W/qm 0,0 nein 00:35
00:40-1,5 °C 2,2 °C 2,8 °C 67 % 1026,5 hPa 0,0 mm - 3,2 km/h 7,9 km/h NO 0,0 W/qm 0,0 nein 00:40
00:45-1,5 °C 2,2 °C 2,8 °C 67 % 1026,4 hPa 0,0 mm - 3,2 km/h 6,5 km/h NO 0,0 W/qm 0,0 nein 00:45
00:50-1,5 °C 2,2 °C 2,8 °C 68 % 1026,5 hPa 0,0 mm - 3,2 km/h 6,5 km/h ONO 0,0 W/qm 0,0 nein 00:50
00:55-1,6 °C 2,2 °C 2,8 °C 67 % 1026,5 hPa 0,0 mm - 4,7 km/h 7,9 km/h NO 0,0 W/qm 0,0 nein 00:55
01:00-1,6 °C 2,2 °C 2,8 °C 68 % 1026,5 hPa 0,0 mm - 4,7 km/h 7,9 km/h NO 0,0 W/qm 0,0 nein 01:00
01:05-1,6 °C 2,2 °C 2,8 °C 67 % 1026,6 hPa 0,0 mm 0,0 mm 4,7 km/h 9,7 km/h NO 0,0 W/qm 0,0 nein 01:05
01:10-1,6 °C 2,2 °C 2,8 °C 68 % 1026,6 hPa 0,0 mm 0,0 mm 3,2 km/h 9,7 km/h NO 0,0 W/qm 0,0 nein 01:10
01:15-1,7 °C 2,2 °C 2,8 °C 68 % 1026,7 hPa 0,0 mm - 3,2 km/h 9,7 km/h ONO 0,0 W/qm 0,0 nein 01:15
01:20-1,7 °C 2,2 °C 2,8 °C 68 % 1026,6 hPa 0,0 mm - 3,2 km/h 7,9 km/h ONO 0,0 W/qm 0,0 nein 01:20
01:25-1,7 °C 2,2 °C 2,8 °C 68 % 1026,6 hPa 0,0 mm - 4,7 km/h 6,5 km/h NO 0,0 W/qm 0,0 nein 01:25
01:30-1,7 °C 2,2 °C 2,8 °C 68 % 1026,6 hPa 0,0 mm - 4,7 km/h 11,2 km/h ONO 0,0 W/qm 0,0 nein 01:30
01:35-1,7 °C 2,2 °C 2,8 °C 68 % 1026,8 hPa 0,0 mm - 6,5 km/h 11,2 km/h ONO 0,0 W/qm 0,0 nein 01:35
01:40-1,7 °C 2,2 °C 2,8 °C 68 % 1026,8 hPa 0,0 mm - 6,5 km/h 11,2 km/h NO 0,0 W/qm 0,0 nein 01:40
01:45-1,8 °C 2,2 °C 2,8 °C 68 % 1026,8 hPa 0,0 mm - 6,5 km/h 13,0 km/h NNO 0,0 W/qm 0,0 nein 01:45
01:50-1,8 °C 2,2 °C 2,8 °C 68 % 1026,8 hPa 0,0 mm - 6,5 km/h 13,0 km/h ONO 0,0 W/qm 0,0 nein 01:50
01:55-1,8 °C 2,2 °C 2,8 °C 68 % 1026,8 hPa 0,0 mm - 6,5 km/h 13,0 km/h NO 0,0 W/qm 0,0 nein 01:55
UhrzeitTemperaturBoden 10cmBoden 20cmFeuchteLuftdruckNiederschlagEvapotranspirationWindWindböenWindrichtungSolarstrahlungUV-IndexSonne?Uhrzeit
02:00-1,8 °C 2,2 °C 2,8 °C 68 % 1026,8 hPa 0,0 mm - 4,7 km/h 11,2 km/h NO 0,0 W/qm 0,0 nein 02:00
02:05-1,8 °C 2,2 °C 2,8 °C 69 % 1026,8 hPa 0,0 mm 0,0 mm 4,7 km/h 13,0 km/h ONO 0,0 W/qm 0,0 nein 02:05
02:10-1,9 °C 2,2 °C 2,8 °C 69 % 1026,8 hPa 0,0 mm 0,0 mm 4,7 km/h 13,0 km/h ONO 0,0 W/qm 0,0 nein 02:10
02:15-1,9 °C 2,2 °C 2,8 °C 69 % 1026,8 hPa 0,0 mm - 4,7 km/h 13,0 km/h O 0,0 W/qm 0,0 nein 02:15
02:20-1,9 °C 2,2 °C 2,8 °C 69 % 1026,8 hPa 0,0 mm - 6,5 km/h 14,4 km/h ONO 0,0 W/qm 0,0 nein 02:20
02:25-1,9 °C 2,2 °C 2,8 °C 69 % 1026,8 hPa 0,0 mm - 6,5 km/h 14,4 km/h NNO 0,0 W/qm 0,0 nein 02:25
02:30-1,9 °C 2,2 °C 2,8 °C 69 % 1026,7 hPa 0,0 mm - 7,9 km/h 17,6 km/h NO 0,0 W/qm 0,0 nein 02:30
02:35-2,0 °C 2,2 °C 2,8 °C 69 % 1026,7 hPa 0,0 mm - 6,5 km/h 17,6 km/h ONO 0,0 W/qm 0,0 nein 02:35
02:40-2,0 °C 2,2 °C 2,8 °C 70 % 1026,6 hPa 0,0 mm - 6,5 km/h 17,6 km/h NNO 0,0 W/qm 0,0 nein 02:40
02:45-2,1 °C 2,2 °C 2,8 °C 70 % 1026,6 hPa 0,0 mm - 4,7 km/h 16,2 km/h ONO 0,0 W/qm 0,0 nein 02:45
02:50-2,1 °C 2,2 °C 2,8 °C 70 % 1026,5 hPa 0,0 mm - 4,7 km/h 16,2 km/h NNO 0,0 W/qm 0,0 nein 02:50
02:55-2,1 °C 2,2 °C 2,8 °C 71 % 1026,5 hPa 0,0 mm - 4,7 km/h 11,2 km/h NO 0,0 W/qm 0,0 nein 02:55
03:00-2,1 °C 2,2 °C 2,8 °C 71 % 1026,4 hPa 0,0 mm - 4,7 km/h 11,2 km/h NO 0,0 W/qm 0,0 nein 03:00
03:05-2,2 °C 2,2 °C 2,8 °C 71 % 1026,5 hPa 0,0 mm 0,1 mm 4,7 km/h 11,2 km/h NNO 0,0 W/qm 0,0 nein 03:05
03:10-2,2 °C 2,2 °C 2,8 °C 72 % 1026,4 hPa 0,0 mm 0,1 mm 6,5 km/h 11,2 km/h NO 0,0 W/qm 0,0 nein 03:10
03:15-2,2 °C 2,2 °C 2,8 °C 72 % 1026,5 hPa 0,0 mm - 6,5 km/h 13,0 km/h NO 0,0 W/qm 0,0 nein 03:15
03:20-2,3 °C 2,2 °C 2,8 °C 72 % 1026,4 hPa 0,0 mm - 4,7 km/h 13,0 km/h ONO 0,0 W/qm 0,0 nein 03:20
03:25-2,3 °C 2,2 °C 2,8 °C 72 % 1026,4 hPa 0,0 mm - 6,5 km/h 13,0 km/h NO 0,0 W/qm 0,0 nein 03:25
03:30-2,3 °C 2,2 °C 2,8 °C 73 % 1026,4 hPa 0,0 mm - 6,5 km/h 13,0 km/h ONO 0,0 W/qm 0,0 nein 03:30
03:35-2,3 °C 2,2 °C 2,8 °C 73 % 1026,3 hPa 0,0 mm - 6,5 km/h 13,0 km/h NO 0,0 W/qm 0,0 nein 03:35
03:40-2,4 °C 2,2 °C 2,8 °C 74 % 1026,2 hPa 0,0 mm - 6,5 km/h 13,0 km/h ONO 0,0 W/qm 0,0 nein 03:40
03:45-2,4 °C 2,2 °C 2,8 °C 74 % 1026,3 hPa 0,0 mm - 4,7 km/h 13,0 km/h NO 0,0 W/qm 0,0 nein 03:45
03:50-2,4 °C 2,2 °C 2,8 °C 74 % 1026,3 hPa 0,0 mm - 6,5 km/h 11,2 km/h ONO 0,0 W/qm 0,0 nein 03:50
03:55-2,4 °C 2,2 °C 2,8 °C 74 % 1026,4 hPa 0,0 mm - 6,5 km/h 13,0 km/h ONO 0,0 W/qm 0,0 nein 03:55
UhrzeitTemperaturBoden 10cmBoden 20cmFeuchteLuftdruckNiederschlagEvapotranspirationWindWindböenWindrichtungSolarstrahlungUV-IndexSonne?Uhrzeit
04:00-2,4 °C 2,2 °C 2,8 °C 74 % 1026,4 hPa 0,0 mm - 6,5 km/h 13,0 km/h ONO 0,0 W/qm 0,0 nein 04:00
04:05-2,4 °C 2,2 °C 2,8 °C 74 % 1026,4 hPa 0,0 mm 0,1 mm 4,7 km/h 13,0 km/h NO 0,0 W/qm 0,0 nein 04:05
04:10-2,4 °C 2,2 °C 2,8 °C 74 % 1026,6 hPa 0,0 mm 0,1 mm 3,2 km/h 11,2 km/h NO 0,0 W/qm 0,0 nein 04:10
04:15-2,4 °C 2,2 °C 2,8 °C 75 % 1026,6 hPa 0,0 mm - 4,7 km/h 11,2 km/h O 0,0 W/qm 0,0 nein 04:15
04:20-2,4 °C 2,2 °C 2,8 °C 75 % 1026,6 hPa 0,0 mm - 4,7 km/h 9,7 km/h NO 0,0 W/qm 0,0 nein 04:20
04:25-2,4 °C 2,2 °C 2,8 °C 75 % 1026,7 hPa 0,0 mm - 3,2 km/h 9,7 km/h ONO 0,0 W/qm 0,0 nein 04:25
04:30-2,5 °C 2,2 °C 2,8 °C 75 % 1026,6 hPa 0,0 mm - 4,7 km/h 9,7 km/h ONO 0,0 W/qm 0,0 nein 04:30
04:35-2,5 °C 2,2 °C 2,8 °C 74 % 1026,7 hPa 0,0 mm - 6,5 km/h 11,2 km/h NO 0,0 W/qm 0,0 nein 04:35
04:40-2,4 °C 2,2 °C 2,8 °C 74 % 1026,7 hPa 0,0 mm - 6,5 km/h 13,0 km/h ONO 0,0 W/qm 0,0 nein 04:40
04:45-2,4 °C 2,2 °C 2,8 °C 74 % 1026,7 hPa 0,0 mm - 6,5 km/h 16,2 km/h NNO 0,0 W/qm 0,0 nein 04:45
04:50-2,4 °C 2,2 °C 2,8 °C 73 % 1026,7 hPa 0,0 mm - 6,5 km/h 16,2 km/h NO 0,0 W/qm 0,0 nein 04:50
04:55-2,5 °C 2,2 °C 2,8 °C 73 % 1026,7 hPa 0,0 mm - 4,7 km/h 16,2 km/h NO 0,0 W/qm 0,0 nein 04:55
05:00-2,5 °C 2,2 °C 2,8 °C 73 % 1026,7 hPa 0,0 mm - 4,7 km/h 14,4 km/h O 0,0 W/qm 0,0 nein 05:00
05:05-2,4 °C 2,2 °C 2,8 °C 73 % 1026,7 hPa 0,0 mm 0,1 mm 4,7 km/h 14,4 km/h ONO 0,0 W/qm 0,0 nein 05:05
05:10-2,5 °C 2,2 °C 2,8 °C 73 % 1026,8 hPa 0,0 mm 0,1 mm 4,7 km/h 11,2 km/h ONO 0,0 W/qm 0,0 nein 05:10
05:15-2,5 °C 2,2 °C 2,8 °C 73 % 1026,8 hPa 0,0 mm - 4,7 km/h 11,2 km/h NO 0,0 W/qm 0,0 nein 05:15
05:20-2,5 °C 2,2 °C 2,8 °C 72 % 1026,8 hPa 0,0 mm - 6,5 km/h 11,2 km/h NO 0,0 W/qm 0,0 nein 05:20
05:25-2,5 °C 2,2 °C 2,8 °C 72 % 1026,8 hPa 0,0 mm - 4,7 km/h 13,0 km/h NO 0,0 W/qm 0,0 nein 05:25
05:30-2,5 °C 2,2 °C 2,8 °C 71 % 1026,7 hPa 0,0 mm - 4,7 km/h 13,0 km/h NO 0,0 W/qm 0,0 nein 05:30
05:35-2,5 °C 2,2 °C 2,8 °C 71 % 1026,8 hPa 0,0 mm - 4,7 km/h 13,0 km/h NNO 0,0 W/qm 0,0 nein 05:35
05:40-2,5 °C 1,7 °C 2,8 °C 70 % 1026,9 hPa 0,0 mm - 4,7 km/h 11,2 km/h NO 0,0 W/qm 0,0 nein 05:40
05:45-2,5 °C 1,7 °C 2,8 °C 70 % 1026,9 hPa 0,0 mm - 4,7 km/h 11,2 km/h ONO 0,0 W/qm 0,0 nein 05:45
05:50-2,5 °C 1,7 °C 2,8 °C 70 % 1026,9 hPa 0,0 mm - 3,2 km/h 11,2 km/h NO 0,0 W/qm 0,0 nein 05:50
05:55-2,5 °C 1,7 °C 2,8 °C 69 % 1027,0 hPa 0,0 mm - 4,7 km/h 11,2 km/h NO 0,0 W/qm 0,0 nein 05:55
UhrzeitTemperaturBoden 10cmBoden 20cmFeuchteLuftdruckNiederschlagEvapotranspirationWindWindböenWindrichtungSolarstrahlungUV-IndexSonne?Uhrzeit
06:00-2,5 °C 1,7 °C 2,8 °C 68 % 1027,0 hPa 0,0 mm - 4,7 km/h 9,7 km/h NO 0,0 W/qm 0,0 nein 06:00
06:05-2,5 °C 1,7 °C 2,8 °C 69 % 1027,1 hPa 0,0 mm 0,1 mm 4,7 km/h 11,2 km/h O 0,0 W/qm 0,0 nein 06:05
06:10-2,6 °C 1,7 °C 2,8 °C 68 % 1027,1 hPa 0,0 mm 0,1 mm 4,7 km/h 11,2 km/h NO 0,0 W/qm 0,0 nein 06:10
06:15-2,6 °C 1,7 °C 2,8 °C 67 % 1027,1 hPa 0,0 mm - 7,9 km/h 13,0 km/h NO 0,0 W/qm 0,0 nein 06:15
06:20-2,6 °C 1,7 °C 2,8 °C 67 % 1027,1 hPa 0,0 mm - 7,9 km/h 19,4 km/h NNO 0,0 W/qm 0,0 nein 06:20
06:25-2,6 °C 1,7 °C 2,8 °C 68 % 1027,2 hPa 0,0 mm - 6,5 km/h 19,4 km/h NO 0,0 W/qm 0,0 nein 06:25
06:30-2,7 °C 1,7 °C 2,8 °C 68 % 1027,2 hPa 0,0 mm - 4,7 km/h 19,4 km/h NO 0,0 W/qm 0,0 nein 06:30
06:35-2,7 °C 1,7 °C 2,8 °C 68 % 1027,2 hPa 0,0 mm - 4,7 km/h 14,4 km/h NO 0,0 W/qm 0,0 nein 06:35
06:40-2,8 °C 1,7 °C 2,8 °C 68 % 1027,2 hPa 0,0 mm - 4,7 km/h 13,0 km/h NO 0,0 W/qm 0,0 nein 06:40
06:45-2,9 °C 1,7 °C 2,8 °C 68 % 1027,3 hPa 0,0 mm - 3,2 km/h 7,9 km/h ONO 5,0 W/qm 0,0 nein 06:45
06:50-3,0 °C 1,7 °C 2,8 °C 69 % 1027,3 hPa 0,0 mm - 3,2 km/h 7,9 km/h NO 7,0 W/qm 0,0 nein 06:50
06:55-3,1 °C 1,7 °C 2,8 °C 69 % 1027,3 hPa 0,0 mm - 4,7 km/h 7,9 km/h NNO 11,0 W/qm 0,0 nein 06:55
07:00-3,2 °C 1,7 °C 2,8 °C 69 % 1027,3 hPa 0,0 mm - 4,7 km/h 11,2 km/h NO 14,0 W/qm 0,0 nein 07:00
07:05-3,3 °C 1,7 °C 2,8 °C 69 % 1027,4 hPa 0,0 mm 0,1 mm 3,2 km/h 11,2 km/h NO 19,0 W/qm 0,0 nein 07:05
07:10-3,4 °C 1,7 °C 2,8 °C 70 % 1027,4 hPa 0,0 mm 0,1 mm 3,2 km/h 11,2 km/h NO 23,0 W/qm 0,0 nein 07:10
07:15-3,4 °C 1,7 °C 2,8 °C 70 % 1027,4 hPa 0,0 mm - 3,2 km/h 7,9 km/h NNO 26,0 W/qm 0,0 nein 07:15
07:20-3,5 °C 1,7 °C 2,8 °C 71 % 1027,6 hPa 0,0 mm - 3,2 km/h 9,7 km/h NO 30,0 W/qm 0,0 nein 07:20
07:25-3,6 °C 1,7 °C 2,8 °C 71 % 1027,6 hPa 0,0 mm - 4,7 km/h 9,7 km/h NO 35,0 W/qm 0,0 nein 07:25
07:30-3,6 °C 1,7 °C 2,8 °C 71 % 1027,5 hPa 0,0 mm - 4,7 km/h 9,7 km/h NO 37,0 W/qm 0,0 nein 07:30
07:35-3,6 °C 1,7 °C 2,8 °C 71 % 1027,6 hPa 0,0 mm - 4,7 km/h 9,7 km/h NO 39,0 W/qm 0,0 nein 07:35
07:40-3,6 °C 1,7 °C 2,8 °C 71 % 1027,6 hPa 0,0 mm - 4,7 km/h 13,0 km/h NO 40,0 W/qm 0,0 nein 07:40
07:45-3,6 °C 1,7 °C 2,8 °C 71 % 1027,6 hPa 0,0 mm - 4,7 km/h 13,0 km/h NO 42,0 W/qm 0,0 nein 07:45
07:50-3,6 °C 1,7 °C 2,8 °C 72 % 1027,7 hPa 0,0 mm - 4,7 km/h 11,2 km/h NO 46,0 W/qm 0,0 nein 07:50
07:55-3,5 °C 1,7 °C 2,8 °C 71 % 1027,7 hPa 0,0 mm - 6,5 km/h 11,2 km/h ONO 51,0 W/qm 0,0 nein 07:55
UhrzeitTemperaturBoden 10cmBoden 20cmFeuchteLuftdruckNiederschlagEvapotranspirationWindWindböenWindrichtungSolarstrahlungUV-IndexSonne?Uhrzeit
08:00-3,4 °C 1,7 °C 2,8 °C 71 % 1027,8 hPa 0,0 mm - 4,7 km/h 13,0 km/h NNO 58,0 W/qm 0,0 nein 08:00
08:05-3,3 °C 1,7 °C 2,8 °C 70 % 1027,8 hPa 0,0 mm 0,1 mm 4,7 km/h 13,0 km/h NO 62,0 W/qm 0,0 nein 08:05
08:10-3,2 °C 1,7 °C 2,8 °C 70 % 1027,8 hPa 0,0 mm 0,1 mm 6,5 km/h 14,4 km/h NNO 63,0 W/qm 0,0 nein 08:10
08:15-2,9 °C 1,7 °C 2,8 °C 70 % 1027,9 hPa 0,0 mm - 6,5 km/h 14,4 km/h NO 67,0 W/qm 0,0 nein 08:15
08:20-2,8 °C 1,7 °C 2,8 °C 69 % 1027,9 hPa 0,0 mm - 6,5 km/h 14,4 km/h NO 69,0 W/qm 0,0 nein 08:20
08:25-2,7 °C 1,7 °C 2,8 °C 68 % 1028,0 hPa 0,0 mm - 6,5 km/h 13,0 km/h ONO 72,0 W/qm 0,0 nein 08:25
08:30-2,6 °C 1,7 °C 2,8 °C 67 % 1027,9 hPa 0,0 mm - 7,9 km/h 9,7 km/h ONO 74,0 W/qm 0,0 nein 08:30
08:35-2,5 °C 1,7 °C 2,8 °C 66 % 1027,9 hPa 0,0 mm - 7,9 km/h 19,4 km/h ONO 76,0 W/qm 0,0 nein 08:35
08:40-2,3 °C 1,7 °C 2,8 °C 67 % 1028,0 hPa 0,0 mm - 6,5 km/h 19,4 km/h ONO 79,0 W/qm 0,5 nein 08:40
08:45-2,2 °C 1,7 °C 2,8 °C 65 % 1028,0 hPa 0,0 mm - 9,7 km/h 19,4 km/h NO 179,0 W/qm 0,5 nein 08:45
08:50-2,1 °C 1,7 °C 2,8 °C 64 % 1028,0 hPa 0,0 mm - 7,9 km/h 17,6 km/h NO 269,0 W/qm 0,5 ja 08:50
08:55-2,0 °C 1,7 °C 2,8 °C 65 % 1028,1 hPa 0,0 mm - 6,5 km/h 17,6 km/h ONO 283,0 W/qm 0,6 ja 08:55
09:00-1,8 °C 1,7 °C 2,8 °C 64 % 1028,0 hPa 0,0 mm - 6,5 km/h 17,6 km/h NNO 297,0 W/qm 0,6 ja 09:00
09:05-1,8 °C 1,7 °C 2,8 °C 62 % 1028,0 hPa 0,0 mm 0,2 mm 7,9 km/h 20,9 km/h NNO 309,0 W/qm 0,6 ja 09:05
09:10-1,8 °C 1,7 °C 2,8 °C 63 % 1028,0 hPa 0,0 mm 0,2 mm 9,7 km/h 20,9 km/h ONO 320,0 W/qm 0,7 ja 09:10
09:15-1,6 °C 1,7 °C 2,8 °C 63 % 1028,1 hPa 0,0 mm - 9,7 km/h 20,9 km/h NNO 336,0 W/qm 0,7 ja 09:15
09:20-1,5 °C 1,7 °C 2,8 °C 62 % 1028,1 hPa 0,0 mm - 11,2 km/h 19,4 km/h NNO 357,0 W/qm 0,7 ja 09:20
09:25-1,3 °C 1,7 °C 2,8 °C 61 % 1028,2 hPa 0,0 mm - 9,7 km/h 20,9 km/h ONO 381,0 W/qm 0,8 ja 09:25
09:30-1,3 °C 1,7 °C 2,8 °C 57 % 1028,2 hPa 0,0 mm - 7,9 km/h 20,9 km/h NO 404,0 W/qm 0,8 ja 09:30
09:35-1,2 °C 1,7 °C 2,8 °C 57 % 1028,2 hPa 0,0 mm - 7,9 km/h 22,7 km/h NO 413,0 W/qm 0,9 ja 09:35
09:40-1,1 °C 1,7 °C 2,8 °C 57 % 1028,1 hPa 0,0 mm - 7,9 km/h 22,7 km/h NO 439,0 W/qm 0,9 ja 09:40
09:45-0,8 °C 1,7 °C 2,8 °C 58 % 1028,1 hPa 0,0 mm - 7,9 km/h 22,7 km/h ONO 420,0 W/qm 1,0 ja 09:45
09:50-0,7 °C 1,7 °C 2,8 °C 54 % 1028,1 hPa 0,0 mm - 7,9 km/h 22,7 km/h ONO 424,0 W/qm 1,0 ja 09:50
09:55-0,8 °C 1,7 °C 2,8 °C 54 % 1028,3 hPa 0,0 mm - 7,9 km/h 22,7 km/h NO 441,0 W/qm 1,0 ja 09:55
UhrzeitTemperaturBoden 10cmBoden 20cmFeuchteLuftdruckNiederschlagEvapotranspirationWindWindböenWindrichtungSolarstrahlungUV-IndexSonne?Uhrzeit
10:00-0,7 °C 1,7 °C 2,8 °C 55 % 1028,2 hPa 0,0 mm - 7,9 km/h 19,4 km/h SSW 450,0 W/qm 1,1 ja 10:00
10:05-0,5 °C 1,7 °C 2,8 °C 53 % 1028,5 hPa 0,0 mm 0,3 mm 6,5 km/h 19,4 km/h ONO 459,0 W/qm 1,1 ja 10:05
10:10-0,4 °C 1,7 °C 2,8 °C 52 % 1028,2 hPa 0,0 mm 0,3 mm 7,9 km/h 19,4 km/h NO 475,0 W/qm 1,2 ja 10:10
10:15-0,3 °C 1,7 °C 2,8 °C 53 % 1028,3 hPa 0,0 mm - 9,7 km/h 22,7 km/h SO 489,0 W/qm 1,2 ja 10:15
10:20-0,1 °C 1,7 °C 2,8 °C 52 % 1028,2 hPa 0,0 mm - 7,9 km/h 22,7 km/h SSO 503,0 W/qm 1,3 ja 10:20
10:250,0 °C 1,7 °C 2,8 °C 51 % 1028,3 hPa 0,0 mm - 6,5 km/h 22,7 km/h SO 499,0 W/qm 1,3 ja 10:25
10:300,1 °C 1,7 °C 2,8 °C 52 % 1028,3 hPa 0,0 mm - 6,5 km/h 22,7 km/h N 506,0 W/qm 1,3 ja 10:30
10:350,1 °C 1,7 °C 2,8 °C 53 % 1028,3 hPa 0,0 mm - 11,2 km/h 17,6 km/h OSO 531,0 W/qm 1,3 ja 10:35
10:40-0,1 °C 1,7 °C 2,8 °C 52 % 1028,3 hPa 0,0 mm - 11,2 km/h 25,9 km/h OSO 524,0 W/qm 1,4 ja 10:40
10:450,1 °C 1,7 °C 2,8 °C 52 % 1028,3 hPa 0,0 mm - 7,9 km/h 25,9 km/h SSO 541,0 W/qm 1,4 ja 10:45
10:500,6 °C 1,7 °C 2,8 °C 50 % 1028,2 hPa 0,0 mm - 6,5 km/h 25,9 km/h S 547,0 W/qm 1,5 ja 10:50
10:550,8 °C 1,7 °C 2,8 °C 50 % 1028,2 hPa 0,0 mm - 6,5 km/h 24,1 km/h SSW 552,0 W/qm 1,5 ja 10:55
11:001,2 °C 1,7 °C 2,8 °C 50 % 1028,2 hPa 0,0 mm - 6,5 km/h 19,4 km/h S 550,0 W/qm 1,5 ja 11:00
11:050,9 °C 1,7 °C 2,8 °C 49 % 1028,3 hPa 0,0 mm 0,5 mm 6,5 km/h 19,4 km/h S 566,0 W/qm 1,6 ja 11:05
11:100,7 °C 1,7 °C 2,8 °C 49 % 1028,3 hPa 0,0 mm 0,5 mm 6,5 km/h 19,4 km/h S 571,0 W/qm 1,6 ja 11:10
11:150,9 °C 1,7 °C 2,8 °C 49 % 1028,3 hPa 0,0 mm - 7,9 km/h 17,6 km/h S 585,0 W/qm 1,6 ja 11:15
11:201,1 °C 1,7 °C 2,8 °C 49 % 1028,2 hPa 0,0 mm - 7,9 km/h 19,4 km/h SSO 585,0 W/qm 1,6 ja 11:20
11:251,2 °C 1,7 °C 2,8 °C 53 % 1028,4 hPa 0,0 mm - 6,5 km/h 19,4 km/h NNW 594,0 W/qm 1,7 ja 11:25
11:301,0 °C 1,7 °C 2,8 °C 50 % 1028,3 hPa 0,0 mm - 4,7 km/h 19,4 km/h ONO 585,0 W/qm 1,7 ja 11:30
11:350,9 °C 1,7 °C 2,8 °C 51 % 1028,4 hPa 0,0 mm - 6,5 km/h 16,2 km/h ONO 594,0 W/qm 1,7 ja 11:35
11:401,2 °C 1,7 °C 2,8 °C 51 % 1028,3 hPa 0,0 mm - 6,5 km/h 16,2 km/h SSO 610,0 W/qm 1,8 ja 11:40
11:451,1 °C 1,7 °C 2,8 °C 50 % 1028,3 hPa 0,0 mm - 6,5 km/h 16,2 km/h S 608,0 W/qm 1,7 ja 11:45
11:501,4 °C 1,7 °C 2,8 °C 49 % 1028,3 hPa 0,0 mm - 6,5 km/h 17,6 km/h SSO 606,0 W/qm 1,8 ja 11:50
11:551,6 °C 1,7 °C 2,8 °C 49 % 1028,2 hPa 0,0 mm - 6,5 km/h 17,6 km/h ONO 605,0 W/qm 1,8 ja 11:55
UhrzeitTemperaturBoden 10cmBoden 20cmFeuchteLuftdruckNiederschlagEvapotranspirationWindWindböenWindrichtungSolarstrahlungUV-IndexSonne?Uhrzeit
12:001,2 °C 1,7 °C 2,8 °C 49 % 1028,3 hPa 0,0 mm - 6,5 km/h 17,6 km/h NO 610,0 W/qm 1,8 ja 12:00
12:051,6 °C 2,2 °C 2,8 °C 48 % 1028,1 hPa 0,0 mm 0,8 mm 6,5 km/h 14,4 km/h OSO 612,0 W/qm 1,8 ja 12:05
12:101,8 °C 2,2 °C 2,8 °C 51 % 1028,2 hPa 0,0 mm 0,8 mm 6,5 km/h 17,6 km/h SSO 605,0 W/qm 1,8 ja 12:10
12:151,3 °C 2,2 °C 2,8 °C 48 % 1028,2 hPa 0,0 mm - 6,5 km/h 17,6 km/h SSO 601,0 W/qm 1,6 ja 12:15
12:201,6 °C 2,2 °C 2,8 °C 52 % 1027,9 hPa 0,0 mm - 7,9 km/h 17,6 km/h NO 622,0 W/qm 1,8 ja 12:20
12:251,8 °C 2,2 °C 2,8 °C 52 % 1027,9 hPa 0,0 mm - 9,7 km/h 17,6 km/h OSO 619,0 W/qm 1,8 ja 12:25
12:301,5 °C 2,2 °C 2,8 °C 49 % 1028,0 hPa 0,0 mm - 7,9 km/h 19,4 km/h SSO 606,0 W/qm 1,8 ja 12:30
12:351,6 °C 2,2 °C 2,8 °C 47 % 1027,8 hPa 0,0 mm - 6,5 km/h 25,9 km/h SSO 591,0 W/qm 1,8 ja 12:35
12:401,9 °C 2,2 °C 2,8 °C 49 % 1027,8 hPa 0,0 mm - 4,7 km/h 25,9 km/h SO 603,0 W/qm 1,8 ja 12:40
12:452,2 °C 2,2 °C 2,8 °C 47 % 1027,6 hPa 0,0 mm - 6,5 km/h 17,6 km/h S 613,0 W/qm 1,8 ja 12:45
12:502,0 °C 2,2 °C 2,8 °C 48 % 1027,6 hPa 0,0 mm - 4,7 km/h 17,6 km/h NO 615,0 W/qm 1,8 ja 12:50
12:551,9 °C 2,2 °C 2,8 °C 48 % 1027,5 hPa 0,0 mm - 6,5 km/h 17,6 km/h NO 610,0 W/qm 1,8 ja 12:55
13:002,0 °C 2,2 °C 2,8 °C 47 % 1027,5 hPa 0,0 mm - 7,9 km/h 19,4 km/h SO 605,0 W/qm 1,8 ja 13:00
13:052,2 °C 2,2 °C 2,8 °C 47 % 1027,3 hPa 0,0 mm 1,0 mm 6,5 km/h 19,4 km/h SSW 608,0 W/qm 1,8 ja 13:05
13:102,0 °C 2,2 °C 2,8 °C 48 % 1027,4 hPa 0,0 mm 1,0 mm 7,9 km/h 16,2 km/h S 606,0 W/qm 1,8 ja 13:10
13:152,3 °C 2,2 °C 2,8 °C 48 % 1027,3 hPa 0,0 mm - 7,9 km/h 16,2 km/h NO 599,0 W/qm 1,7 ja 13:15
13:202,3 °C 2,2 °C 2,8 °C 50 % 1027,3 hPa 0,0 mm - 7,9 km/h 22,7 km/h ONO 601,0 W/qm 1,7 ja 13:20
13:252,3 °C 2,2 °C 2,8 °C 48 % 1027,2 hPa 0,0 mm - 7,9 km/h 22,7 km/h O 596,0 W/qm 1,7 ja 13:25
13:302,6 °C 2,2 °C 2,8 °C 47 % 1027,2 hPa 0,0 mm - 6,5 km/h 20,9 km/h SSO 598,0 W/qm 1,7 ja 13:30
13:352,4 °C 2,2 °C 2,8 °C 48 % 1027,1 hPa 0,0 mm - 6,5 km/h 20,9 km/h W 582,0 W/qm 1,7 ja 13:35
13:402,4 °C 2,2 °C 2,8 °C 49 % 1027,1 hPa 0,0 mm - 4,7 km/h 16,2 km/h SSO 578,0 W/qm 1,6 ja 13:40
13:452,6 °C 2,2 °C 2,8 °C 52 % 1026,7 hPa 0,0 mm - 7,9 km/h 17,6 km/h NNO 582,0 W/qm 1,6 ja 13:45
13:502,2 °C 2,8 °C 2,8 °C 48 % 1026,8 hPa 0,0 mm - 11,2 km/h 20,9 km/h NNO 573,0 W/qm 1,6 ja 13:50
13:552,9 °C 2,8 °C 2,8 °C 47 % 1026,8 hPa 0,0 mm - 7,9 km/h 24,1 km/h SO 570,0 W/qm 1,6 ja 13:55
UhrzeitTemperaturBoden 10cmBoden 20cmFeuchteLuftdruckNiederschlagEvapotranspirationWindWindböenWindrichtungSolarstrahlungUV-IndexSonne?Uhrzeit
14:002,9 °C 2,8 °C 2,8 °C 48 % 1026,6 hPa 0,0 mm - 4,7 km/h 24,1 km/h ONO 561,0 W/qm 1,5 ja 14:00
14:052,7 °C 2,8 °C 2,8 °C 47 % 1026,5 hPa 0,0 mm 1,2 mm 4,7 km/h 24,1 km/h NO 559,0 W/qm 1,5 ja 14:05
14:102,9 °C 2,8 °C 2,8 °C 47 % 1026,5 hPa 0,0 mm 1,2 mm 6,5 km/h 14,4 km/h S 548,0 W/qm 1,5 ja 14:10
14:153,1 °C 2,8 °C 2,8 °C 47 % 1026,5 hPa 0,0 mm - 6,5 km/h 14,4 km/h ONO 538,0 W/qm 1,4 ja 14:15
14:202,8 °C 2,8 °C 2,8 °C 50 % 1026,6 hPa 0,0 mm - 4,7 km/h 14,4 km/h ONO 536,0 W/qm 1,4 ja 14:20
14:252,9 °C 2,8 °C 2,8 °C 47 % 1026,4 hPa 0,0 mm - 4,7 km/h 14,4 km/h SO 522,0 W/qm 1,3 ja 14:25
14:303,2 °C 2,8 °C 2,8 °C 46 % 1026,2 hPa 0,0 mm - 6,5 km/h 14,4 km/h SSO 520,0 W/qm 1,3 ja 14:30
14:353,3 °C 2,8 °C 2,8 °C 46 % 1026,2 hPa 0,0 mm - 6,5 km/h 16,2 km/h SSW 510,0 W/qm 1,3 ja 14:35
14:403,3 °C 2,8 °C 2,8 °C 46 % 1026,2 hPa 0,0 mm - 4,7 km/h 16,2 km/h S 504,0 W/qm 1,3 ja 14:40
14:453,1 °C 2,8 °C 2,8 °C 46 % 1026,3 hPa 0,0 mm - 4,7 km/h 16,2 km/h ONO 490,0 W/qm 1,2 ja 14:45
14:503,0 °C 2,8 °C 2,8 °C 48 % 1026,3 hPa 0,0 mm - 4,7 km/h 16,2 km/h O 482,0 W/qm 1,2 ja 14:50
14:553,0 °C 2,8 °C 2,8 °C 47 % 1026,3 hPa 0,0 mm - 3,2 km/h 14,4 km/h SSO 471,0 W/qm 1,1 ja 14:55
15:003,4 °C 2,8 °C 2,8 °C 47 % 1026,2 hPa 0,0 mm - 3,2 km/h 16,2 km/h SSW 462,0 W/qm 1,1 ja 15:00
15:053,6 °C 2,8 °C 2,8 °C 48 % 1026,1 hPa 0,0 mm 1,5 mm 3,2 km/h 16,2 km/h NNO 455,0 W/qm 1,1 ja 15:05
15:103,4 °C 2,8 °C 2,8 °C 48 % 1026,1 hPa 0,0 mm 1,5 mm 4,7 km/h 9,7 km/h NO 441,0 W/qm 1,0 ja 15:10
15:153,2 °C 2,8 °C 2,8 °C 47 % 1026,1 hPa 0,0 mm - 4,7 km/h 19,4 km/h NO 427,0 W/qm 1,0 ja 15:15
15:203,3 °C 2,8 °C 2,8 °C 49 % 1026,1 hPa 0,0 mm - 4,7 km/h 19,4 km/h ONO 422,0 W/qm 0,9 ja 15:20
15:253,0 °C 2,8 °C 2,8 °C 49 % 1026,1 hPa 0,0 mm - 4,7 km/h 14,4 km/h NNO 408,0 W/qm 0,9 ja 15:25
15:303,1 °C 3,3 °C 2,8 °C 50 % 1026,0 hPa 0,0 mm - 4,7 km/h 14,4 km/h O 396,0 W/qm 0,9 ja 15:30
15:353,1 °C 3,3 °C 2,8 °C 49 % 1026,0 hPa 0,0 mm - 4,7 km/h 14,4 km/h NO 387,0 W/qm 0,8 ja 15:35
15:403,1 °C 3,3 °C 2,8 °C 50 % 1026,0 hPa 0,0 mm - 6,5 km/h 14,4 km/h ONO 373,0 W/qm 0,8 ja 15:40
15:453,1 °C 3,3 °C 2,8 °C 50 % 1025,9 hPa 0,0 mm - 7,9 km/h 17,6 km/h SSO 362,0 W/qm 0,7 ja 15:45
15:502,8 °C 3,3 °C 2,8 °C 49 % 1026,0 hPa 0,0 mm - 7,9 km/h 17,6 km/h NO 350,0 W/qm 0,7 ja 15:50
15:553,0 °C 3,3 °C 2,8 °C 49 % 1025,9 hPa 0,0 mm - 6,5 km/h 17,6 km/h NO 336,0 W/qm 0,6 ja 15:55
UhrzeitTemperaturBoden 10cmBoden 20cmFeuchteLuftdruckNiederschlagEvapotranspirationWindWindböenWindrichtungSolarstrahlungUV-IndexSonne?Uhrzeit
16:002,8 °C 3,3 °C 2,8 °C 49 % 1026,0 hPa 0,0 mm - 4,7 km/h 17,6 km/h ONO 322,0 W/qm 0,6 ja 16:00
16:052,8 °C 3,3 °C 2,8 °C 50 % 1026,0 hPa 0,0 mm 1,6 mm 6,5 km/h 16,2 km/h NO 306,0 W/qm 0,6 ja 16:05
16:102,8 °C 3,3 °C 2,8 °C 50 % 1026,0 hPa 0,0 mm 1,6 mm 7,9 km/h 14,4 km/h NNO 292,0 W/qm 0,5 ja 16:10
16:152,9 °C 3,3 °C 2,8 °C 49 % 1026,0 hPa 0,0 mm - 6,5 km/h 14,4 km/h S 278,0 W/qm 0,5 ja 16:15
16:202,9 °C 3,3 °C 2,8 °C 48 % 1025,8 hPa 0,0 mm - 3,2 km/h 14,4 km/h NO 260,0 W/qm 0,5 ja 16:20
16:252,9 °C 3,3 °C 2,8 °C 49 % 1025,8 hPa 0,0 mm - 4,7 km/h 14,4 km/h ONO 244,0 W/qm 0,0 ja 16:25
16:303,1 °C 3,3 °C 2,8 °C 49 % 1025,8 hPa 0,0 mm - 4,7 km/h 13,0 km/h S 227,0 W/qm 0,0 ja 16:30
16:353,4 °C 3,3 °C 2,8 °C 47 % 1025,8 hPa 0,0 mm - 3,2 km/h 19,4 km/h ONO 211,0 W/qm 0,0 nein 16:35
16:402,9 °C 3,3 °C 2,8 °C 49 % 1025,9 hPa 0,0 mm - 6,5 km/h 19,4 km/h NO 195,0 W/qm 0,0 nein 16:40
16:452,8 °C 3,3 °C 2,8 °C 49 % 1025,8 hPa 0,0 mm - 6,5 km/h 16,2 km/h NO 176,0 W/qm 0,0 nein 16:45
16:502,7 °C 3,3 °C 2,8 °C 51 % 1025,8 hPa 0,0 mm - 4,7 km/h 16,2 km/h NO 162,0 W/qm 0,0 nein 16:50
16:552,9 °C 3,3 °C 2,8 °C 49 % 1025,8 hPa 0,0 mm - 4,7 km/h 16,2 km/h NO 146,0 W/qm 0,0 nein 16:55
17:002,8 °C 3,3 °C 2,8 °C 48 % 1025,8 hPa 0,0 mm - 4,7 km/h 13,0 km/h ONO 88,0 W/qm 0,0 nein 17:00
17:052,7 °C 3,3 °C 3,3 °C 50 % 1025,9 hPa 0,0 mm 1,7 mm 4,7 km/h 14,4 km/h ONO 83,0 W/qm 0,0 nein 17:05
17:102,6 °C 3,3 °C 3,3 °C 50 % 1025,9 hPa 0,0 mm 1,7 mm 3,2 km/h 14,4 km/h ONO 37,0 W/qm 0,0 nein 17:10
17:152,4 °C 3,3 °C 3,3 °C 49 % 1025,9 hPa 0,0 mm - 3,2 km/h 14,4 km/h ONO 33,0 W/qm 0,0 nein 17:15
17:202,4 °C 3,3 °C 3,3 °C 51 % 1025,8 hPa 0,0 mm - 3,2 km/h 7,9 km/h NO 37,0 W/qm 0,0 nein 17:20
17:252,3 °C 3,3 °C 3,3 °C 49 % 1026,0 hPa 0,0 mm - 3,2 km/h 11,2 km/h NO 28,0 W/qm 0,0 nein 17:25
17:302,2 °C 3,3 °C 3,3 °C 52 % 1026,0 hPa 0,0 mm - 3,2 km/h 11,2 km/h NNO 25,0 W/qm 0,0 nein 17:30
17:351,9 °C 3,3 °C 3,3 °C 52 % 1026,0 hPa 0,0 mm - 1,4 km/h 11,2 km/h NNO 23,0 W/qm 0,0 nein 17:35
17:401,9 °C 3,3 °C 3,3 °C 52 % 1026,0 hPa 0,0 mm - 3,2 km/h 7,9 km/h ONO 21,0 W/qm 0,0 nein 17:40
17:451,7 °C 3,3 °C 3,3 °C 53 % 1026,0 hPa 0,0 mm - 3,2 km/h 6,5 km/h NO 18,0 W/qm 0,0 nein 17:45
17:501,3 °C 2,8 °C 3,3 °C 55 % 1026,2 hPa 0,0 mm - 1,4 km/h 6,5 km/h NO 16,0 W/qm 0,0 nein 17:50
17:551,2 °C 2,8 °C 3,3 °C 55 % 1026,3 hPa 0,0 mm - 0,0 km/h 6,5 km/h NO 14,0 W/qm 0,0 nein 17:55
UhrzeitTemperaturBoden 10cmBoden 20cmFeuchteLuftdruckNiederschlagEvapotranspirationWindWindböenWindrichtungSolarstrahlungUV-IndexSonne?Uhrzeit
18:000,5 °C 2,8 °C 3,3 °C 59 % 1026,5 hPa 0,0 mm - 0,0 km/h 6,5 km/h NO 11,0 W/qm 0,0 nein 18:00
18:050,1 °C 2,8 °C 3,3 °C 61 % 1026,7 hPa 0,0 mm 1,8 mm 0,0 km/h 4,7 km/h NNO 9,0 W/qm 0,0 nein 18:05
18:10-0,3 °C 2,8 °C 3,3 °C 62 % 1026,8 hPa 0,0 mm 1,8 mm 0,0 km/h 6,5 km/h NNO 7,0 W/qm 0,0 nein 18:10
18:15-0,6 °C 2,8 °C 3,3 °C 63 % 1026,8 hPa 0,0 mm - 0,0 km/h 6,5 km/h NNO 5,0 W/qm 0,0 nein 18:15
18:20-0,7 °C 2,8 °C 3,3 °C 63 % 1026,9 hPa 0,0 mm - 0,0 km/h 6,5 km/h NNO 0,0 W/qm 0,0 nein 18:20
18:25-0,9 °C 2,8 °C 3,3 °C 64 % 1027,1 hPa 0,0 mm - 0,0 km/h 3,2 km/h NNO 0,0 W/qm 0,0 nein 18:25
18:30-1,1 °C 2,8 °C 3,3 °C 65 % 1027,1 hPa 0,0 mm - 0,0 km/h 3,2 km/h NNO 0,0 W/qm 0,0 nein 18:30
18:35-1,4 °C 2,8 °C 3,3 °C 66 % 1027,2 hPa 0,0 mm - 0,0 km/h 3,2 km/h NNO 0,0 W/qm 0,0 nein 18:35
18:40-1,4 °C 2,8 °C 3,3 °C 66 % 1027,2 hPa 0,0 mm - 0,0 km/h 4,7 km/h NNO 0,0 W/qm 0,0 nein 18:40
18:45-1,4 °C 2,8 °C 3,3 °C 67 % 1027,2 hPa 0,0 mm - 0,0 km/h 4,7 km/h NNO 0,0 W/qm 0,0 nein 18:45
18:50-1,6 °C 2,8 °C 3,3 °C 67 % 1027,4 hPa 0,0 mm - 0,0 km/h 4,7 km/h NNO 0,0 W/qm 0,0 nein 18:50
18:55-1,7 °C 2,8 °C 3,3 °C 68 % 1027,5 hPa 0,0 mm - 0,0 km/h 3,2 km/h NNO 0,0 W/qm 0,0 nein 18:55
19:00-1,7 °C 2,8 °C 3,3 °C 67 % 1027,6 hPa 0,0 mm - 0,0 km/h 3,2 km/h NNO 0,0 W/qm 0,0 nein 19:00
19:05-1,7 °C 2,8 °C 3,3 °C 66 % 1027,6 hPa 0,0 mm 1,8 mm 0,0 km/h 3,2 km/h NNO 0,0 W/qm 0,0 nein 19:05
19:10-1,9 °C 2,8 °C 3,3 °C 68 % 1027,6 hPa 0,0 mm 1,8 mm 0,0 km/h 3,2 km/h NNO 0,0 W/qm 0,0 nein 19:10
19:15-2,2 °C 2,8 °C 3,3 °C 69 % 1027,7 hPa 0,0 mm - 0,0 km/h 0,0 km/h NNO 0,0 W/qm 0,0 nein 19:15
19:20-2,4 °C 2,8 °C 3,3 °C 70 % 1027,7 hPa 0,0 mm - 0,0 km/h 0,0 km/h NNO 0,0 W/qm 0,0 nein 19:20
19:25-2,6 °C 2,8 °C 3,3 °C 71 % 1027,7 hPa 0,0 mm - 0,0 km/h 0,0 km/h NNO 0,0 W/qm 0,0 nein 19:25
19:30-2,7 °C 2,8 °C 3,3 °C 71 % 1027,9 hPa 0,0 mm - 0,0 km/h 0,0 km/h NNO 0,0 W/qm 0,0 nein 19:30
19:35-2,7 °C 2,8 °C 3,3 °C 71 % 1027,9 hPa 0,0 mm - 0,0 km/h 0,0 km/h NNO 0,0 W/qm 0,0 nein 19:35
19:40-2,7 °C 2,8 °C 3,3 °C 72 % 1028,0 hPa 0,0 mm - 0,0 km/h 0,0 km/h NNO 0,0 W/qm 0,0 nein 19:40
19:45-2,8 °C 2,8 °C 3,3 °C 70 % 1028,0 hPa 0,0 mm - 0,0 km/h 0,0 km/h NNO 0,0 W/qm 0,0 nein 19:45
19:50-2,9 °C 2,8 °C 3,3 °C 71 % 1028,1 hPa 0,0 mm - 0,0 km/h 0,0 km/h NNO 0,0 W/qm 0,0 nein 19:50
19:55-3,2 °C 2,8 °C 3,3 °C 72 % 1028,2 hPa 0,0 mm - 0,0 km/h 0,0 km/h NNO 0,0 W/qm 0,0 nein 19:55
UhrzeitTemperaturBoden 10cmBoden 20cmFeuchteLuftdruckNiederschlagEvapotranspirationWindWindböenWindrichtungSolarstrahlungUV-IndexSonne?Uhrzeit
20:00-3,1 °C 2,8 °C 3,3 °C 72 % 1028,2 hPa 0,0 mm - 0,0 km/h 0,0 km/h NNO 0,0 W/qm 0,0 nein 20:00
20:05-3,1 °C 2,8 °C 3,3 °C 72 % 1028,2 hPa 0,0 mm 1,8 mm 0,0 km/h 0,0 km/h NNO 0,0 W/qm 0,0 nein 20:05
20:10-3,2 °C 2,8 °C 3,3 °C 73 % 1028,2 hPa 0,0 mm 1,8 mm 0,0 km/h 0,0 km/h NNO 0,0 W/qm 0,0 nein 20:10
20:15-3,2 °C 2,8 °C 3,3 °C 74 % 1028,3 hPa 0,0 mm - 0,0 km/h 0,0 km/h NNO 0,0 W/qm 0,0 nein 20:15
20:20-3,4 °C 2,8 °C 3,3 °C 74 % 1028,5 hPa 0,0 mm - 0,0 km/h 0,0 km/h NNO 0,0 W/qm 0,0 nein 20:20
20:25-3,3 °C 2,8 °C 3,3 °C 74 % 1028,5 hPa 0,0 mm - 0,0 km/h 0,0 km/h NNO 0,0 W/qm 0,0 nein 20:25
20:30-3,5 °C 2,8 °C 3,3 °C 74 % 1028,6 hPa 0,0 mm - 0,0 km/h 0,0 km/h NNO 0,0 W/qm 0,0 nein 20:30
20:35-3,7 °C 2,8 °C 3,3 °C 75 % 1028,6 hPa 0,0 mm - 0,0 km/h 0,0 km/h NNO 0,0 W/qm 0,0 nein 20:35
20:40-3,8 °C 2,8 °C 3,3 °C 76 % 1028,6 hPa 0,0 mm - 0,0 km/h 0,0 km/h NNO 0,0 W/qm 0,0 nein 20:40
20:45-3,8 °C 2,8 °C 3,3 °C 76 % 1028,6 hPa 0,0 mm - 0,0 km/h 0,0 km/h NNO 0,0 W/qm 0,0 nein 20:45
20:50-3,8 °C 2,8 °C 3,3 °C 77 % 1028,6 hPa 0,0 mm - 0,0 km/h 0,0 km/h NNO 0,0 W/qm 0,0 nein 20:50
20:55-3,8 °C 2,8 °C 3,3 °C 76 % 1028,6 hPa 0,0 mm - 0,0 km/h 0,0 km/h NNO 0,0 W/qm 0,0 nein 20:55
21:00-3,9 °C 2,8 °C 3,3 °C 76 % 1028,8 hPa 0,0 mm - 0,0 km/h 0,0 km/h NNO 0,0 W/qm 0,0 nein 21:00
21:05-3,8 °C 2,8 °C 3,3 °C 76 % 1028,8 hPa 0,0 mm 1,8 mm 0,0 km/h 0,0 km/h NNO 0,0 W/qm 0,0 nein 21:05
21:10-4,0 °C 2,8 °C 3,3 °C 77 % 1028,8 hPa 0,0 mm 1,8 mm 0,0 km/h 0,0 km/h NNO 0,0 W/qm 0,0 nein 21:10
21:15-4,1 °C 2,8 °C 3,3 °C 77 % 1028,9 hPa 0,0 mm - 0,0 km/h 0,0 km/h NNO 0,0 W/qm 0,0 nein 21:15
21:20-4,2 °C 2,2 °C 3,3 °C 78 % 1029,0 hPa 0,0 mm - 0,0 km/h 0,0 km/h NNO 0,0 W/qm 0,0 nein 21:20
21:25-4,3 °C 2,2 °C 3,3 °C 78 % 1029,0 hPa 0,0 mm - 0,0 km/h 0,0 km/h NNO 0,0 W/qm 0,0 nein 21:25
21:30-4,3 °C 2,2 °C 3,3 °C 78 % 1029,0 hPa 0,0 mm - 0,0 km/h 0,0 km/h NNO 0,0 W/qm 0,0 nein 21:30
21:35-4,3 °C 2,2 °C 3,3 °C 78 % 1028,9 hPa 0,0 mm - 0,0 km/h 0,0 km/h NNO 0,0 W/qm 0,0 nein 21:35
21:40-4,4 °C 2,2 °C 3,3 °C 79 % 1029,1 hPa 0,0 mm - 0,0 km/h 0,0 km/h NNO 0,0 W/qm 0,0 nein 21:40
21:45-4,5 °C 2,2 °C 3,3 °C 79 % 1029,1 hPa 0,0 mm - 0,0 km/h 0,0 km/h NNO 0,0 W/qm 0,0 nein 21:45
21:50-4,7 °C 2,2 °C 3,3 °C 79 % 1029,1 hPa 0,0 mm - 0,0 km/h 0,0 km/h NNO 0,0 W/qm 0,0 nein 21:50
21:55-4,6 °C 2,2 °C 3,3 °C 80 % 1029,0 hPa 0,0 mm - 0,0 km/h 0,0 km/h NNO 0,0 W/qm 0,0 nein 21:55
UhrzeitTemperaturBoden 10cmBoden 20cmFeuchteLuftdruckNiederschlagEvapotranspirationWindWindböenWindrichtungSolarstrahlungUV-IndexSonne?Uhrzeit
22:00-4,6 °C 2,2 °C 3,3 °C 80 % 1029,1 hPa 0,0 mm - 0,0 km/h 0,0 km/h NNO 0,0 W/qm 0,0 nein 22:00
22:05-4,8 °C 2,2 °C 3,3 °C 80 % 1029,1 hPa 0,0 mm 1,8 mm 0,0 km/h 0,0 km/h NNO 0,0 W/qm 0,0 nein 22:05
22:10-4,8 °C 2,2 °C 3,3 °C 81 % 1029,1 hPa 0,0 mm 1,8 mm 0,0 km/h 0,0 km/h NNO 0,0 W/qm 0,0 nein 22:10
22:15-4,9 °C 2,2 °C 3,3 °C 81 % 1029,1 hPa 0,0 mm - 0,0 km/h 0,0 km/h NNO 0,0 W/qm 0,0 nein 22:15
22:20-4,9 °C 2,2 °C 3,3 °C 81 % 1029,1 hPa 0,0 mm - 0,0 km/h 0,0 km/h NNO 0,0 W/qm 0,0 nein 22:20
22:25-5,0 °C 2,2 °C 3,3 °C 81 % 1028,9 hPa 0,0 mm - 0,0 km/h 0,0 km/h NNO 0,0 W/qm 0,0 nein 22:25
22:30-5,1 °C 2,2 °C 2,8 °C 81 % 1029,1 hPa 0,0 mm - 0,0 km/h 0,0 km/h NNO 0,0 W/qm 0,0 nein 22:30
22:35-5,1 °C 2,2 °C 2,8 °C 81 % 1029,0 hPa 0,0 mm - 0,0 km/h 0,0 km/h NNO 0,0 W/qm 0,0 nein 22:35
22:40-5,2 °C 2,2 °C 2,8 °C 81 % 1029,0 hPa 0,0 mm - 0,0 km/h 0,0 km/h NNO 0,0 W/qm 0,0 nein 22:40
22:45-5,2 °C 2,2 °C 2,8 °C 81 % 1029,1 hPa 0,0 mm - 0,0 km/h 0,0 km/h NNO 0,0 W/qm 0,0 nein 22:45
22:50-5,2 °C 2,2 °C 2,8 °C 82 % 1029,0 hPa 0,0 mm - 0,0 km/h 0,0 km/h NNO 0,0 W/qm 0,0 nein 22:50
22:55-5,3 °C 2,2 °C 2,8 °C 82 % 1029,0 hPa 0,0 mm - 0,0 km/h 0,0 km/h NNO 0,0 W/qm 0,0 nein 22:55
23:00-5,3 °C 2,2 °C 2,8 °C 82 % 1028,9 hPa 0,0 mm - 0,0 km/h 0,0 km/h NNO 0,0 W/qm 0,0 nein 23:00
23:05-5,5 °C 2,2 °C 2,8 °C 82 % 1028,9 hPa 0,0 mm 1,8 mm 0,0 km/h 0,0 km/h NNO 0,0 W/qm 0,0 nein 23:05
23:10-5,5 °C 2,2 °C 2,8 °C 83 % 1028,9 hPa 0,0 mm 1,8 mm 0,0 km/h 0,0 km/h NNO 0,0 W/qm 0,0 nein 23:10
23:15-5,5 °C 2,2 °C 2,8 °C 83 % 1028,9 hPa 0,0 mm - 0,0 km/h 0,0 km/h NNO 0,0 W/qm 0,0 nein 23:15
23:20-5,6 °C 2,2 °C 2,8 °C 84 % 1028,8 hPa 0,0 mm - 0,0 km/h 0,0 km/h NNO 0,0 W/qm 0,0 nein 23:20
23:25-5,7 °C 2,2 °C 2,8 °C 84 % 1028,9 hPa 0,0 mm - 0,0 km/h 0,0 km/h NNO 0,0 W/qm 0,0 nein 23:25
23:30-5,7 °C 2,2 °C 2,8 °C 84 % 1028,8 hPa 0,0 mm - 0,0 km/h 0,0 km/h NNO 0,0 W/qm 0,0 nein 23:30
23:35-5,7 °C 2,2 °C 2,8 °C 84 % 1028,8 hPa 0,0 mm - 0,0 km/h 0,0 km/h NNO 0,0 W/qm 0,0 nein 23:35
23:40-5,8 °C 2,2 °C 2,8 °C 83 % 1028,9 hPa 0,0 mm - 0,0 km/h 0,0 km/h NNO 0,0 W/qm 0,0 nein 23:40
23:45-5,9 °C 2,2 °C 2,8 °C 84 % 1028,9 hPa 0,0 mm - 0,0 km/h 0,0 km/h NNO 0,0 W/qm 0,0 nein 23:45
23:50-5,9 °C 2,2 °C 2,8 °C 84 % 1028,9 hPa 0,0 mm - 0,0 km/h 0,0 km/h NNO 0,0 W/qm 0,0 nein 23:50
23:55-5,9 °C 2,2 °C 2,8 °C 84 % 1028,9 hPa 0,0 mm - 0,0 km/h 0,0 km/h NNO 0,0 W/qm 0,0 nein 23:55
Gesamt: -1,2 °C 2,3 °C 2,9 °C 64 % 1027,4 hPa 0,0 mm 39,8 mm 4,3 km/h 11,4 km/h 0 167,3 W/qm 0,4 ja

Insgesamt 288 Zeilen mal 13 Spalten = 3744 Werte werden angezeigt.

www.wetter-rosstal.de   •   www.wetter-franken.de   •   www.lightningmaps.org   •   Start   •   Kontakt / Datenschutz   •   PC-Kümmerer